Location: Detroit
(42.3310°N, 83.0460°W)
Time: 19:16:34
(UTC-04:00)

A-11 Canister half - Pass Details

Date: 11 February 2023
Orbit: 1526 x 1682 km, 47.3° (Epoch: 29 March)

Event Time Altitude Azimuth Distance (km) Brightness Sun altitude
Rises 11:10:02 0° 296° (WNW) 4,698 11.1 29.5°
Reaches altitude 10° 11:13:18 10° 289° (WNW) 3,726 10.7 29.8°
Maximum altitude 11:21:44 39° 225° (SW) 2,208 10.4 30.4°
Drops below altitude 10° 11:30:24 10° 161° (SSE) 3,815 12.7 31.1°
Sets 11:33:49 0° 153° (SSE) 4,821 12.7 31.3°
